CZ-3C DEB, 40171

Orbit data source: Space-Track

CZ-3C DEB, 40171 is space debris originally from a launch on Sun, 31 Oct 2010 UTC launched from the Xichang Space Center, China (XSC). Debris objects in space refer to the collection of defunct objects orbiting the Earth. Examples of debris include non-operational satellites, rocket bodies, and fragments generated from explosions, collisions, or faulty payload assembly.

Loading next visibility...
Identifier
40171, 2010-057Z
Orbit
Active
Country
Flag of CNCN / PRC
Related business
Manufacturer
CALT
Mission
Spacecraft
Bus & Motor
Unknown
Mass
Unknown
Launch date (UTC)
2010-10-31 (15 years ago)
Launch vehicle
Unknown
Launch site
Xichang Space Center, China (XSC)
Object type
Payload
Rocket body
Debris
Shape & HBR
Unknown shape, 0.3 m
Radar Cross Section
Medium (>0.1 m² and <1 m²)

Expand to show TLE details & history
Last TLE update: 22 hours ago

TLE from 22 hours ago
0 CZ-3C DEB
1 40171U 10057Z   25300.56469573  .00088695  00000-0  12664-1 0  9997
2 40171  21.8869  39.2024 4171375 299.2735  25.4662  7.04766130196166
Epoch: 2025-10-27T13:33Z
TLE epoch observation values (Epoch: 2025-10-27T13:33:09.711Z)
Latitude
0.00003°
Longitude
159.7473°
Altitude
1,506.452 km
Speed
8.15 km/s
True Right ascension
02h 36m 48s
True Declination
0° 00' 00"
Sunlit
Object was in full shadow at epoch
Visualization orbit readout
Latitude
Unknown
Longitude
Unknown
Altitude
Unknown
Speed
Unknown
Apparent Right ascension
Unknown
Apparent Declination
Unknown
Sunlit
N/A
Visualization observer readout
Local Sidereal Time
06:34:32
Azimuth
Unknown
Elevation
Unknown
Doppler factor
Unknown
Orbital elements
Apogee altitude
9,912.453 km
Perigee altitude
322.112 km
Semi-major axis
11,495.42 km
Eccentricity
0.41714
Inclination
21.8869°
RAAN
39.2024°
Arg. of periapsis
299.2735°
True anomaly
60.76597°
Mean anomaly
25.4662°
Eccentric anomaly
41.21315°
Mean motion
1.76099 °/min
Orbital period
204.43 mins
BSTAR
0.012664
Loading maneuver chart data...
Computing Atmospheric mass density...
Loading historical data...
Loading historical data...
Loading historical data...
Loading historical data...
Loading historical data...
Loading historical data...
Loading historical data...

Documentation

Showing up to 5 results
|